Погода в Ерцеве

Россия / Архангельская область     60°47′48″N   40°05′07″E
темп.,
°C
ветер,
м/с
пор.,
м/с
влажн.,
%
обл.,
%
осадки,
мм/ч
давл.,
гПа
погр.,
м
26 февраля, пт
пт2600:00−17ююв259882 0.0 1011121
03:00−17юв379779 0.0 1009148
06:00−14ююв4896100 0.1 1006236
09:00−13юв4996100 0.3 1002256
12:00−12вюв4995100 2.4 999321
15:00−11вюв41095100 5.6 997444
18:00−13в4895100 1.8 997488
21:00−13всв3794100 2.4 1001449
27 февраля, сб
сб2700:00−16св2497100 0.0 1003128
03:00−18ссв239794 0.0 100637
06:00−18всв129768 0.0 100635
09:00−17ссв119662 0.0 100872
12:00−12с139172 0.0 1010315
15:00−10с239386 0.1 1011404
18:00−12с129695 0.1 101222
21:00−12ссз129791 0.2 101320
28 февраля, вс
вс2800:00−12сз129787 0.1 101321
03:00−11зсз129784 0.3 101421
06:00−11сз129882 0.1 101421
09:00−8ссз139787 0.1 1014116
12:00−5с139395 0.1 1014373
15:00−4ссз129295 0.1 1015429
18:00−5зсз1194100 0.1 101621
21:00−5зюз1296100 0.1 101768
1 марта, пн
пн100:00−5юз2496100 0.1 1017195
03:00−8ююз2697100 0.1 1017138
06:00−7юз399680 0.1 1016283
09:00−6юз389590 0.2 1014323
12:00−2юз4109799 0.1 1011457
15:000юз51198100 2.4 1008613
18:00+1з41099100 2.4 1004645
21:00+1зсз51298100 3.1 1003778
2 марта, вт
вт200:000зсз5129198 0.1 1003899
03:00−1зсз4119392 0.2 1003754
06:00−1зсз4109799 0.6 1003721
09:00−1сз399699 1.2 1003816
12:00−1зсз4893100 0.4 1003759
15:00−1сз4895100 1.0 1004742
18:00−3сз3109396 0.5 1006496
21:00−5сз399692 0.5 1008345